Time,TemperatureF,DewpointF,PressureIn,WindDirection,WindDirectionDegrees,WindSpeedMPH,WindSpeedGustMPH,Humidity,HourlyPrecipIn,Conditions,Clouds,dailyrainin,SolarRadiationWatts/m^2,SoftwareType,DateUTC
2013-08-13 00:01:00,54.0,53.0,-100.00,East,88,0.0,1.0,97,0.00,,,0.00,0.000000,,2013-08-13 07:01:00,
2013-08-13 00:11:00,54.0,53.0,-100.00,East,88,0.0,1.0,97,0.00,,,0.00,0.000000,,2013-08-13 07:11:00,
2013-08-13 00:21:00,54.0,53.0,-100.00,East,88,0.0,1.0,97,0.00,,,0.00,0.000000,,2013-08-13 07:21:00,
2013-08-13 00:52:00,52.0,51.0,-100.00,East,86,0.0,0.0,98,0.00,,,0.00,0.000000,,2013-08-13 07:52:00,
2013-08-13 01:02:00,52.0,51.0,-100.00,East,86,0.0,0.0,98,0.00,,,0.00,0.000000,,2013-08-13 08:02:00,
2013-08-13 01:11:00,52.0,51.0,-100.00,East,86,0.0,0.0,98,0.00,,,0.00,0.000000,,2013-08-13 08:11:00,
2013-08-13 01:21:00,52.0,51.0,-100.00,East,86,0.0,0.0,98,0.00,,,0.00,0.000000,,2013-08-13 08:21:00,
2013-08-13 01:31:00,52.0,51.0,-100.00,East,86,0.0,0.0,98,0.00,,,0.00,0.000000,,2013-08-13 08:31:00,
2013-08-13 01:52:00,52.0,51.0,-100.00,SE,125,0.0,2.0,98,0.00,,,0.00,0.000000,,2013-08-13 08:52:00,
2013-08-13 02:01:00,52.0,51.0,-100.00,SE,125,0.0,2.0,98,0.00,,,0.00,0.000000,,2013-08-13 09:01:00,
2013-08-13 02:11:00,52.0,51.0,-100.00,SE,125,0.0,2.0,98,0.00,,,0.00,0.000000,,2013-08-13 09:11:00,
2013-08-13 02:21:00,52.0,51.0,-100.00,SE,125,0.0,2.0,98,0.00,,,0.00,0.000000,,2013-08-13 09:21:00,
2013-08-13 02:32:00,52.0,51.0,-100.00,SE,125,0.0,2.0,98,0.00,,,0.00,0.000000,,2013-08-13 09:32:00,
2013-08-13 02:53:00,53.0,52.0,-100.00,North,8,1.0,2.0,98,0.00,,,0.00,0.000000,,2013-08-13 09:53:00,
2013-08-13 03:03:00,53.0,52.0,-100.00,North,8,1.0,2.0,98,0.00,,,0.00,0.000000,,2013-08-13 10:03:00,
2013-08-13 03:12:00,53.0,52.0,-100.00,North,8,1.0,2.0,98,0.00,,,0.00,0.000000,,2013-08-13 10:12:00,
2013-08-13 03:23:00,53.0,52.0,-100.00,North,8,1.0,2.0,98,0.00,,,0.00,0.000000,,2013-08-13 10:23:00,
2013-08-13 03:32:00,53.0,52.0,-100.00,North,8,1.0,2.0,98,0.00,,,0.00,0.000000,,2013-08-13 10:32:00,
2013-08-13 03:52:00,53.0,52.0,-100.00,NNW,348,0.0,2.0,97,0.00,,,-99.99,0.000000,,2013-08-13 10:52:00,
2013-08-13 04:02:00,53.0,52.0,-100.00,NNW,348,0.0,2.0,97,0.00,,,-99.99,0.000000,,2013-08-13 11:02:00,
2013-08-13 04:11:00,53.0,52.0,-100.00,NNW,348,0.0,2.0,97,0.00,,,-99.99,0.000000,,2013-08-13 11:11:00,
2013-08-13 04:22:00,53.0,52.0,-100.00,NNW,348,0.0,2.0,97,0.00,,,-99.99,0.000000,,2013-08-13 11:22:00,
2013-08-13 04:31:00,53.0,52.0,-100.00,NNW,348,0.0,2.0,97,0.00,,,-99.99,0.000000,,2013-08-13 11:31:00,
2013-08-13 04:52:00,53.0,52.0,-100.00,North,6,0.0,2.0,97,0.00,,,0.00,0.000000,,2013-08-13 11:52:00,
2013-08-13 05:01:00,53.0,52.0,-100.00,North,6,0.0,2.0,97,0.00,,,0.00,0.000000,,2013-08-13 12:01:00,
2013-08-13 05:12:00,53.0,52.0,-100.00,North,6,0.0,2.0,97,0.00,,,0.00,0.000000,,2013-08-13 12:12:00,
2013-08-13 05:21:00,53.0,52.0,-100.00,North,6,0.0,2.0,97,0.00,,,0.00,0.000000,,2013-08-13 12:21:00,
2013-08-13 05:31:00,53.0,52.0,-100.00,North,6,0.0,2.0,97,0.00,,,0.00,0.000000,,2013-08-13 12:31:00,
2013-08-13 05:52:00,53.0,52.0,-100.00,NNW,333,1.0,3.0,96,0.00,,,0.00,0.000000,,2013-08-13 12:52:00,
2013-08-13 06:01:00,53.0,52.0,-100.00,NNW,333,1.0,3.0,96,0.00,,,0.00,0.000000,,2013-08-13 13:01:00,
2013-08-13 06:11:00,53.0,52.0,-100.00,NNW,333,1.0,3.0,96,0.00,,,0.00,0.000000,,2013-08-13 13:11:00,
2013-08-13 06:21:00,53.0,52.0,-100.00,NNW,333,1.0,3.0,96,0.00,,,0.00,0.000000,,2013-08-13 13:21:00,
2013-08-13 06:31:00,53.0,52.0,-100.00,NNW,333,1.0,3.0,96,0.00,,,0.00,0.000000,,2013-08-13 13:31:00,
2013-08-13 06:52:00,54.0,53.0,-100.00,North,3,0.0,2.0,96,0.00,,,0.00,2.000000,,2013-08-13 13:52:00,
2013-08-13 07:02:00,54.0,53.0,-100.00,North,3,0.0,2.0,96,0.00,,,0.00,2.000000,,2013-08-13 14:02:00,
2013-08-13 07:11:00,54.0,53.0,-100.00,North,3,0.0,2.0,96,0.00,,,0.00,2.000000,,2013-08-13 14:11:00,
2013-08-13 07:21:00,54.0,53.0,-100.00,North,3,0.0,2.0,96,0.00,,,0.00,2.000000,,2013-08-13 14:21:00,
2013-08-13 07:31:00,54.0,53.0,-100.00,North,3,0.0,2.0,96,0.00,,,0.00,2.000000,,2013-08-13 14:31:00,
2013-08-13 07:33:00,55.0,53.0,-100.00,NW,325,0.0,3.0,94,0.00,,,0.00,32.000000,,2013-08-13 14:33:00,
2013-08-13 07:52:00,55.0,53.0,-100.00,NW,325,0.0,3.0,94,0.00,,,0.00,32.000000,,2013-08-13 14:52:00,
2013-08-13 08:02:00,55.0,53.0,-100.00,NW,325,0.0,3.0,94,0.00,,,0.00,32.000000,,2013-08-13 15:02:00,
2013-08-13 08:11:00,55.0,53.0,-100.00,NW,325,0.0,3.0,94,0.00,,,0.00,32.000000,,2013-08-13 15:11:00,
2013-08-13 08:21:00,55.0,53.0,-100.00,NW,325,0.0,3.0,94,0.00,,,0.00,32.000000,,2013-08-13 15:21:00,
2013-08-13 08:33:00,58.0,54.0,-100.00,NNW,328,0.0,2.0,88,0.00,,,0.00,107.000000,,2013-08-13 15:33:00,
2013-08-13 08:54:00,58.0,54.0,-100.00,NNW,328,0.0,2.0,88,0.00,,,0.00,107.000000,,2013-08-13 15:54:00,
2013-08-13 09:03:00,58.0,54.0,-100.00,NNW,328,0.0,2.0,88,0.00,,,0.00,107.000000,,2013-08-13 16:03:00,
2013-08-13 09:13:00,58.0,54.0,-100.00,NNW,328,0.0,2.0,88,0.00,,,0.00,107.000000,,2013-08-13 16:13:00,
2013-08-13 09:23:00,58.0,54.0,-100.00,NNW,328,0.0,2.0,88,0.00,,,0.00,107.000000,,2013-08-13 16:23:00,
2013-08-13 10:33:00,69.0,55.0,-100.00,East,92,1.0,4.0,60,-99.99,,,0.00,528.000000,,2013-08-13 17:33:00,
2013-08-13 11:25:00,69.0,55.0,-100.00,East,92,1.0,4.0,60,-99.99,,,0.00,528.000000,,2013-08-13 18:25:00,
2013-08-13 11:33:00,68.0,54.0,-100.00,South,185,2.0,7.0,60,-99.99,,,0.00,514.000000,,2013-08-13 18:33:00,
2013-08-13 11:56:00,68.0,54.0,-100.00,South,185,2.0,7.0,60,-99.99,,,0.00,514.000000,,2013-08-13 18:56:00,
2013-08-13 12:04:00,68.0,54.0,-100.00,South,185,2.0,7.0,60,-99.99,,,0.00,514.000000,,2013-08-13 19:04:00,
2013-08-13 12:14:00,68.0,54.0,-100.00,South,185,2.0,7.0,60,-99.99,,,0.00,514.000000,,2013-08-13 19:14:00,
2013-08-13 12:24:00,68.0,54.0,-100.00,South,185,2.0,7.0,60,-99.99,,,0.00,514.000000,,2013-08-13 19:24:00,
2013-08-13 15:13:00,75.0,53.0,-100.00,West,259,5.0,10.0,47,-99.99,,,0.00,801.000000,,2013-08-13 22:13:00,
2013-08-13 15:57:00,74.0,52.0,-100.00,SW,236,3.0,12.0,47,-99.99,,,0.00,748.000000,,2013-08-13 22:57:00,
2013-08-13 16:03:00,74.0,52.0,-100.00,SW,236,3.0,12.0,47,-99.99,,,0.00,748.000000,,2013-08-13 23:03:00,
2013-08-13 18:52:00,73.0,54.0,-100.00,West,277,2.0,8.0,51,-99.99,,,0.00,321.000000,,2013-08-14 01:52:00,
2013-08-13 19:02:00,73.0,54.0,-100.00,West,277,2.0,8.0,51,-99.99,,,0.00,321.000000,,2013-08-14 02:02:00,
2013-08-13 20:53:00,63.0,53.0,-100.00,West,269,0.0,6.0,69,-99.99,,,0.00,29.000000,,2013-08-14 03:53:00,
2013-08-13 21:03:00,63.0,53.0,-100.00,West,269,0.0,6.0,69,-99.99,,,0.00,29.000000,,2013-08-14 04:03:00,
2013-08-13 21:12:00,63.0,53.0,-100.00,West,269,0.0,6.0,69,-99.99,,,0.00,29.000000,,2013-08-14 04:12:00,
2013-08-13 21:23:00,63.0,53.0,-100.00,West,269,0.0,6.0,69,-99.99,,,0.00,29.000000,,2013-08-14 04:23:00,
2013-08-13 21:32:00,63.0,53.0,-100.00,West,269,0.0,6.0,69,-99.99,,,0.00,29.000000,,2013-08-14 04:32:00,
2013-08-13 21:52:00,60.0,53.0,-100.00,ESE,118,1.0,2.0,79,0.00,,,0.00,1.000000,,2013-08-14 04:52:00,
2013-08-13 22:02:00,60.0,53.0,-100.00,ESE,118,1.0,2.0,79,0.00,,,0.00,1.000000,,2013-08-14 05:02:00,
2013-08-13 22:12:00,60.0,53.0,-100.00,ESE,118,1.0,2.0,79,0.00,,,0.00,1.000000,,2013-08-14 05:12:00,
2013-08-13 22:22:00,60.0,53.0,-100.00,ESE,118,1.0,2.0,79,0.00,,,0.00,1.000000,,2013-08-14 05:22:00,
2013-08-13 22:31:00,60.0,53.0,-100.00,ESE,118,1.0,2.0,79,0.00,,,0.00,1.000000,,2013-08-14 05:31:00,
2013-08-13 22:52:00,58.0,54.0,-100.00,ESE,108,0.0,4.0,85,0.00,,,0.00,0.000000,,2013-08-14 05:52:00,
2013-08-13 23:01:00,58.0,54.0,-100.00,ESE,108,0.0,4.0,85,0.00,,,0.00,0.000000,,2013-08-14 06:01:00,
2013-08-13 23:11:00,58.0,54.0,-100.00,ESE,108,0.0,4.0,85,0.00,,,0.00,0.000000,,2013-08-14 06:11:00,
2013-08-13 23:21:00,58.0,54.0,-100.00,ESE,108,0.0,4.0,85,0.00,,,0.00,0.000000,,2013-08-14 06:21:00,
2013-08-13 23:31:00,58.0,54.0,-100.00,ESE,108,0.0,4.0,85,0.00,,,0.00,0.000000,,2013-08-14 06:31:00,
2013-08-13 23:52:00,55.0,53.0,-100.00,NNW,338,0.0,2.0,93,0.00,,,0.00,0.000000,,2013-08-14 06:52:00,